Location: Wangen+im+Allg�u
(47.7098°N, 9.8383°E)
Time: 09:48:32
(UTC+01:00)

ISS - Pass Details

Date: 13 January 2018
Orbit: 401 x 406 km, 51.6° (Epoch: 17 January)

Event Time Altitude Azimuth Distance (km) Brightness Sun altitude
Exits shadow 05:34:43 32° 112° (ESE) 721 -2.1 -24.7°
Drops below altitude 10° 05:36:37 10° 113° (ESE) 1,461 -0.1 -24.4°
Sets 05:38:42 0° 114° (ESE) 2,320 1.2 -24.1°
